Location: Klein M�hlingen
(51.9472°N, 11.7453°E)
Time: 17:31:11
(UTC+00:00)

MOS 1-B Rocket - Pass Details

Date: 09 April 2020
Orbit: 891 x 1605 km, 99.1° (Epoch: 29 May)

Event Time Altitude Azimuth Distance (km) Brightness Sun altitude
Rises 23:31:30 0° 14° (NNE) 3,662 8.2 -29.9°
Reaches altitude 10° 23:33:49 10° 13° (NNE) 2,772 7.3 -29.9°
Maximum altitude 23:40:00 73° 290° (WNW) 1,148 4.2 -29.8°
Enters shadow 23:40:41 68° 248° (WSW) 1,193 4.2 -29.7°
